[[{"header":{"parameterUnit":"m.s-1","parameterCategory":1,"la1":30.2991,"la2":30.254,"lo1":-89.0895,"lo2":-89.0444,"dy":0.0017,"dx":0.0017,"nx":28,"ny":28,"refTime":"2024-08-05T03:00:00:Z","depth":0,"parameterNumber":2,"parameterNumberName":"U-component_of_WINDS"},"data":[0,0,0,0,0,0,0,0,0,0,0,0,0,0,0,0,0,0,0,0,0,0,0,0,0,0,0,0,0,0,0,0,0,0,0,0,0,0,0,0,0,0,0,0,0,0,0,0,0,0,0,0,0,0,0,0,0,0,0.8307,0.8308,0,0.8404,0.8405,0.8406,0.8452,0.8452,0.8452,0.8452,0.8557,0.856,0.8562,0,0,0,0,0,0,0,0,0,0,0,0,0,0.8168,0.817,0.8307,0.8308,0.8309,0.8404,0.8405,0.8406,0.8452,0.8452,0.8452,0.8452,0.8556,0.8559,0.8563,0,0,0,0,0,0,0,0,0,0,0,0,0,0.8243,0.8171,0.8307,0.8344,0.8348,0.8403,0.8405,0.8407,0.8452,0.8452,0.8452,0.8452,0.8555,0.8559,0.8563,0.8591,0,0,0.8576,0.8578,0,0,0,0,0,0,0,0,0.8239,0.8248,0.8337,0.8341,0.8346,0.8416,0.8394,0.8469,0.8452,0.8413,0.8452,0.8452,0.851,0.8518,0.8537,0.8596,0.86,0.8577,0.8579,0.8581,0.8582,0,0,0,0,0,0,0,0.8234,0.8244,0.8345,0.8338,0.8344,0.8357,0.8368,0.8409,0.8461,0.8416,0.842,0.843,0.8513,0.8533,0.854,0.8602,0.8576,0.858,0.8583,0.8585,0.8691,0.8691,0,0,0,0,0,0,0.8222,0.824,0.8342,0.8348,0.8291,0.836,0.8372,0.8394,0.8461,0.8471,0.843,0.8432,0.8525,0.8535,0.8543,0.8582,0.8581,0.8585,0.8587,0.8691,0.8691,0.8691,0,0,0,0,0,0,0.8218,0.823,0.8339,0.8295,0.831,0.8362,0.8387,0.8396,0.8415,0.8471,0.8481,0.844,0.8526,0.8537,0.8579,0.8586,0.8587,0.8591,0.869,0.8691,0.8691,0.8657,0,0,0,0,0,0,0.8214,0.8229,0.8238,0.8295,0.8312,0.837,0.8387,0.8397,0.8422,0.8425,0.8483,0.8493,0.8526,0.8572,0.8583,0.8592,0.8594,0.869,0.8691,0.8691,0.8658,0.8656,0.8655,0,0,0,0,0,0.8209,0.8226,0.8239,0.8251,0.8325,0.837,0.8381,0.8417,0.8422,0.8433,0.847,0.8491,0.8583,0.8576,0.8589,0.8599,0.869,0.869,0.8691,0.8659,0.8657,0.8655,0,0,0,0,0,0,0.817,0.8234,0.8249,0.8284,0.8321,0.8378,0.8393,0.8414,0.8452,0.8453,0.8499,0.8512,0.8549,0.8578,0.8569,0.863,0.8639,0.8642,0.861,0.8608,0.8607,0.86,0.8598,0,0,0,0,0,0.8166,0.8196,0.825,0.8276,0.8294,0.834,0.8362,0.8386,0.8428,0.8444,0.8484,0.8525,0.8563,0.8587,0.8626,0.8662,0.8677,0.8676,0.8674,0.8673,0.8675,0.8698,0.8699,0.8693,0.8693,0.8693,0,0,0.8157,0.8195,0.8212,0.8269,0.8301,0.8333,0.8353,0.8386,0.8411,0.845,0.8491,0.8521,0.8571,0.861,0.8629,0.8635,0.868,0.8673,0.8672,0.8675,0.8699,0.8699,0.87,0.8694,0.8694,0.8694,0,0,0.8157,0.8188,0.8214,0.8245,0.8293,0.8324,0.833,0.8384,0.8405,0.8447,0.8477,0.8508,0.8573,0.8607,0.8632,0.8646,0.8669,0.8658,0.8651,0.8673,0.8673,0.8674,0.868,0.8681,0.866,0.866,0.866,0,0.814,0.8188,0.8225,0.8256,0.8281,0.8316,0.8344,0.8373,0.8432,0.8449,0.8455,0.8537,0.8572,0.8621,0.8624,0.8643,0.8653,0.8652,0.867,0.8671,0.8672,0.8678,0.868,0.8658,0.8659,0.8659,0.8659,0,0.8166,0.8199,0.8214,0.8268,0.8295,0.8324,0.8367,0.8391,0.8413,0.8444,0.8487,0.8531,0.8579,0.8593,0.8616,0.8645,0.8647,0.866,0.867,0.867,0.8677,0.868,0.8656,0.8657,0.8657,0.8658,0,0,0.8144,0.8218,0.8223,0.8248,0.8304,0.8331,0.8363,0.8408,0.8428,0.8468,0.8497,0.8551,0.8564,0.8593,0.862,0.8639,0.8649,0.8651,0.8653,0.865,0.8686,0.8676,0.8678,0.8664,0.8665,0.8665,0.8682,0,0.8153,0.8209,0.8244,0.8287,0.8319,0.8353,0.8381,0.8419,0.8449,0.8482,0.8517,0.8554,0.8568,0.8586,0.8606,0.8643,0.8657,0.8643,0.8693,0.8695,0.868,0.8681,0.8671,0.8685,0.8685,0.8685,0.8686,0,0.817,0.8207,0.8253,0.8306,0.8321,0.8345,0.839,0.842,0.8465,0.8486,0.8519,0.8546,0.8583,0.859,0.8643,0.8632,0.8655,0.8677,0.8678,0.8685,0.869,0.8689,0.869,0.8692,0.869,0.869,0.869,0,0.8151,0.8212,0.8248,0.8269,0.8331,0.8347,0.8375,0.8419,0.8445,0.8485,0.8503,0.8547,0.8572,0.8607,0.8646,0.8647,0.8696,0.8705,0.8716,0.8715,0.8725,0.8724,0.873,0.8738,0.8738,0.8738,0.8738,0,0.8157,0.8184,0.824,0.8262,0.8294,0.8335,0.8366,0.8396,0.8436,0.8466,0.8499,0.8527,0.8577,0.8612,0.8644,0.8684,0.8695,0.8714,0.8722,0.8711,0.8709,0.8727,0.8728,0.8739,0.8739,0.8739,0.8739,0,0.8141,0.8179,0.8221,0.8276,0.8291,0.8312,0.8361,0.8384,0.8416,0.8454,0.8465,0.8516,0.8559,0.8602,0.866,0.8681,0.8721,0.8732,0.8705,0.871,0.8718,0.8717,0.8737,0.8742,0.8746,0.8746,0.8746,0,0.8142,0.8164,0.8221,0.8243,0.8269,0.8303,0.8329,0.8371,0.8397,0.845,0.8468,0.8513,0.8551,0.8618,0.8662,0.8707,0.8719,0.8723,0.8727,0.8715,0.8721,0.8719,0.8722,0.8722,0.8722,0.8722,0.8721,0,0.8141,0.816,0.8195,0.8237,0.8267,0.8302,0.8339,0.8356,0.8405,0.8433,0.8476,0.8506,0.8565,0.8609,0.866,0.869,0.8715,0.872,0.8725,0.8714,0.8698,0.8708,0.8702,0.872,0.872,0.872,0.872,0.872,0.8135,0.8156,0.82,0.8238,0.827,0.8304,0.833,0.8364,0.84,0.845,0.8473,0.8517,0.8564,0.8633,0.8663,0.87,0.8706,0.8713,0.8715,0.8716,0.8714,0.8692,0.8709,0.8709,0.8709,0.8709,0.8709,0,0.8137,0.8167,0.8201,0.8252,0.8283,0.8301,0.8343,0.8369,0.8406,0.8446,0.8483,0.8533,0.8577,0.8624,0.8671,0.8691,0.8704,0.8702,0.8702,0.8709,0.8705,0.8696,0.8692,0.8692,0.8692,0.8692,0.8692,0.8692,0.8141,0.8178,0.8201,0.8255,0.8286,0.8327,0.835,0.8383,0.8415,0.8469,0.8505,0.8535,0.8578,0.8629,0.8671,0.8684,0.87,0.8695,0.8711,0.8708,0.8709,0.871,0.8702,0.8698,0.8698,0.8712,0.8712,0.8712]},{"header":{"parameterUnit":"m.s-1","parameterCategory":1,"la1":30.2991,"la2":30.254,"lo1":-89.0895,"lo2":-89.0444,"dy":0.0017,"dx":0.0017,"nx":28,"ny":28,"refTime":"2024-08-05T03:00:00:Z","depth":0,"parameterNumber":3,"parameterNumberName":"V-component_of_WINDS"},"data":[0,0,0,0,0,0,0,0,0,0,0,0,0,0,0,0,0,0,0,0,0,0,0,0,0,0,0,0,0,0,0,0,0,0,0,0,0,0,0,0,0,0,0,0,0,0,0,0,0,0,0,0,0,0,0,0,0,0,0.341,0.3411,0,0.3495,0.3496,0.3497,0.3447,0.3444,0.3442,0.344,0.3526,0.353,0.3535,0,0,0,0,0,0,0,0,0,0,0,0,0,0.3201,0.3205,0.341,0.3411,0.3412,0.3495,0.3496,0.3497,0.3447,0.3444,0.3441,0.3439,0.3524,0.353,0.3535,0,0,0,0,0,0,0,0,0,0,0,0,0,0.3289,0.3207,0.341,0.3397,0.3397,0.3494,0.3496,0.3497,0.3448,0.3444,0.3441,0.3437,0.3522,0.3529,0.3536,0.365,0,0,0.3557,0.356,0,0,0,0,0,0,0,0,0.3285,0.3297,0.3398,0.3398,0.3398,0.3457,0.3454,0.3549,0.3449,0.3429,0.344,0.3435,0.3506,0.3514,0.3537,0.3654,0.3658,0.3557,0.3561,0.3564,0.3566,0,0,0,0,0,0,0,0.3278,0.3293,0.3443,0.3399,0.34,0.3386,0.3395,0.3471,0.3486,0.343,0.3427,0.3437,0.3505,0.3531,0.3539,0.3659,0.3557,0.3563,0.3567,0.357,0.3868,0.3872,0,0,0,0,0,0,0.3274,0.3288,0.3441,0.3446,0.3331,0.3393,0.3402,0.3441,0.3485,0.3489,0.344,0.3435,0.3521,0.3531,0.3542,0.3674,0.3564,0.3571,0.3575,0.3864,0.3869,0.3873,0,0,0,0,0,0,0.3269,0.3288,0.3437,0.3366,0.3384,0.34,0.3444,0.3445,0.3471,0.3493,0.3495,0.3464,0.3519,0.3532,0.3622,0.3677,0.3574,0.358,0.386,0.3866,0.3871,0.3943,0,0,0,0,0,0,0.3264,0.3286,0.3331,0.3368,0.3388,0.3518,0.3448,0.3449,0.3483,0.3476,0.3516,0.3519,0.3517,0.3612,0.3629,0.3684,0.3585,0.3855,0.3862,0.3869,0.3936,0.395,0.3963,0,0,0,0,0,0.3256,0.3349,0.3334,0.3353,0.3445,0.3521,0.3533,0.3528,0.3488,0.3531,0.3545,0.3518,0.3669,0.3622,0.364,0.3698,0.3851,0.386,0.3868,0.3929,0.3947,0.3963,0,0,0,0,0,0,0.332,0.3354,0.3337,0.3445,0.348,0.3513,0.3568,0.3548,0.3596,0.3588,0.358,0.3589,0.3682,0.37,0.3647,0.3808,0.3753,0.3766,0.3793,0.3811,0.3824,0.3816,0.3591,0,0,0,0,0,0.3346,0.3406,0.3433,0.3525,0.3544,0.3553,0.3586,0.3579,0.3615,0.363,0.3651,0.3686,0.374,0.3777,0.3829,0.3938,0.3944,0.3987,0.4001,0.4012,0.4022,0.4076,0.4094,0.3901,0.3901,0.3901,0,0,0.3402,0.3428,0.3467,0.3538,0.3565,0.3625,0.3566,0.3634,0.3677,0.3641,0.3725,0.3741,0.378,0.3879,0.3924,0.3897,0.4076,0.4023,0.4031,0.4035,0.4086,0.4104,0.4121,0.3907,0.3906,0.3905,0,0,0.3533,0.3561,0.3638,0.3665,0.3705,0.371,0.3729,0.3763,0.3772,0.3857,0.3829,0.3881,0.3977,0.4004,0.403,0.4167,0.4142,0.4184,0.4255,0.4307,0.4322,0.4335,0.438,0.4396,0.4195,0.4195,0.4195,0,0.3596,0.3687,0.368,0.3748,0.3779,0.3747,0.3824,0.3851,0.3906,0.3927,0.3896,0.4012,0.4037,0.4139,0.4171,0.4196,0.4214,0.4179,0.4321,0.4334,0.4346,0.4388,0.4405,0.42,0.4199,0.4199,0.4198,0,0.376,0.3823,0.3881,0.3933,0.397,0.4043,0.4045,0.4084,0.4073,0.408,0.4165,0.4192,0.4247,0.4271,0.4263,0.4371,0.4352,0.4322,0.4265,0.4369,0.4408,0.4425,0.4206,0.4204,0.4203,0.4202,0,0,0.3935,0.398,0.4001,0.4022,0.4062,0.411,0.4179,0.4232,0.4263,0.4302,0.4357,0.4437,0.4407,0.4437,0.443,0.4477,0.4577,0.444,0.444,0.4461,0.4693,0.4713,0.4732,0.4562,0.4565,0.4568,0.4688,0,0.4064,0.4185,0.4179,0.4291,0.4346,0.4315,0.4375,0.4405,0.4413,0.446,0.4469,0.4524,0.4483,0.45,0.4545,0.4556,0.4623,0.4547,0.461,0.4612,0.4598,0.4753,0.4776,0.4888,0.4704,0.4706,0.4708,0,0.4233,0.4274,0.4391,0.4419,0.4442,0.4496,0.454,0.4587,0.4619,0.4621,0.4653,0.4638,0.4705,0.4648,0.4738,0.4687,0.4712,0.4721,0.4725,0.4728,0.4665,0.4757,0.4925,0.494,0.4733,0.4731,0.473,0,0.4342,0.4428,0.4507,0.4527,0.4563,0.46,0.4617,0.4645,0.4676,0.4715,0.4734,0.4782,0.4807,0.4843,0.4839,0.48,0.4929,0.4874,0.493,0.493,0.4957,0.4954,0.5127,0.4979,0.4979,0.4979,0.4978,0,0.4485,0.4557,0.4556,0.4605,0.4683,0.4675,0.4752,0.4764,0.4789,0.4838,0.4816,0.4862,0.4856,0.4902,0.49,0.4972,0.4985,0.4986,0.4984,0.4986,0.4985,0.5,0.4991,0.4983,0.4982,0.4981,0.4981,0,0.462,0.4623,0.4707,0.4733,0.474,0.4796,0.4817,0.4862,0.4867,0.4929,0.4943,0.4951,0.5003,0.5004,0.5065,0.5063,0.5149,0.5141,0.5138,0.5135,0.5189,0.5182,0.5375,0.5397,0.5239,0.524,0.5242,0,0.471,0.4764,0.4794,0.4824,0.4842,0.4893,0.4923,0.4916,0.4948,0.4986,0.5026,0.5075,0.5114,0.5199,0.5209,0.5254,0.5243,0.5307,0.525,0.5248,0.5239,0.5234,0.5237,0.5318,0.532,0.5321,0.5322,0,0.4867,0.4865,0.4909,0.4953,0.4988,0.5023,0.5055,0.5081,0.5077,0.5114,0.5166,0.5196,0.5256,0.5304,0.5347,0.5362,0.534,0.534,0.5355,0.5356,0.535,0.5349,0.5164,0.5336,0.5334,0.5333,0.5333,0.5332,0.4979,0.5023,0.505,0.5099,0.5121,0.515,0.5192,0.5201,0.5245,0.5292,0.5286,0.5343,0.537,0.5424,0.5443,0.5486,0.5463,0.5486,0.5491,0.5495,0.5499,0.5346,0.5494,0.5494,0.5494,0.5493,0.5493,0,0.5131,0.5146,0.5191,0.5234,0.5271,0.5248,0.5281,0.5313,0.5364,0.539,0.5428,0.5486,0.5532,0.5545,0.5588,0.562,0.5611,0.5631,0.5627,0.563,0.5519,0.55,0.5637,0.5637,0.5637,0.5637,0.5637,0.5637,0.5214,0.5286,0.5287,0.5368,0.5383,0.5438,0.5458,0.5483,0.5504,0.5569,0.5606,0.5614,0.5634,0.5678,0.5718,0.572,0.5736,0.5759,0.5757,0.5653,0.5638,0.5624,0.5606,0.5764,0.5764,0.5864,0.5865,0.5865]}]]